GSAT 0209

Last updated on Sun May 29 2016 01:44:43 GMT+0000 (Coordinated Universal Time)

1 41174U 15079A 16149.57526485 .00000049 00000-0 00000+0 0 9994 2 41174 54.9442 202.3774 0005506 272.4685 66.1105 1.70474222 2765

Satellite not in orbit

GSAT 0209